ETH814 HTZA-HTKJ

Flight info

Callsign ETH814
Flight time 0h 40m
Altitude 28000
Route OKBEM DCT MUMTU ERBEP2A
Aircraft A359/H-SDE2E3GHIJ3J4J5LM1ORWXY/LB1D1

Departure

Time 2026-05-06 14:05
Airport Abeid Amani Karume International Airport (HTZA)

Arrival

Time 2026-05-06 14:46
Airport Kilimanjaro International Airport (HTKJ)
Time Latitude Longitude Altitude Speed Heading
2026-05-06 13:11 -6.22331 39.22180 64 ft 0 kts 354°
2026-05-06 13:54 -6.22330 39.22180 64 ft 0 kts 354°
2026-05-06 13:54 -6.22346 39.22182 56 ft 4 kts 356°
2026-05-06 13:54 -6.22373 39.22184 61 ft 4 kts 356°
2026-05-06 13:55 -6.22394 39.22184 53 ft 2 kts 342°
2026-05-06 13:55 -6.22383 39.22197 52 ft 4 kts 47°
2026-05-06 13:55 -6.22403 39.22181 55 ft 2 kts 22°
2026-05-06 13:55 -6.22425 39.22172 52 ft 5 kts 30°
2026-05-06 13:56 -6.22440 39.22160 55 ft 4 kts 68°
2026-05-06 13:56 -6.22430 39.22160 55 ft 11 kts 85°
2026-05-06 13:56 -6.22318 39.22223 58 ft 0 kts 85°
2026-05-06 13:56 -6.22318 39.22222 58 ft 0 kts 85°
2026-05-06 13:57 -6.22317 39.22222 57 ft 0 kts 85°
2026-05-06 13:58 -6.22317 39.22226 58 ft 4 kts 85°
2026-05-06 13:59 -6.22313 39.22276 59 ft 0 kts 84°
2026-05-06 13:59 -6.22310 39.22285 58 ft 6 kts 67°
2026-05-06 14:00 -6.22238 39.22307 62 ft 14 kts
2026-05-06 14:00 -6.22231 39.22307 65 ft 0 kts
2026-05-06 14:00 -6.22223 39.22307 58 ft 7 kts
2026-05-06 14:01 -6.22155 39.22308 66 ft 11 kts 356°
2026-05-06 14:01 -6.22074 39.22297 59 ft 13 kts 352°
2026-05-06 14:01 -6.21998 39.22322 60 ft 13 kts 58°
2026-05-06 14:01 -6.21980 39.22366 59 ft 0 kts 76°
2026-05-06 14:02 -6.21979 39.22372 59 ft 5 kts 78°
2026-05-06 14:02 -6.21950 39.22443 57 ft 16 kts 39°
2026-05-06 14:03 -6.21805 39.22455 68 ft 27 kts 355°
2026-05-06 14:03 -6.21580 39.22428 64 ft 34 kts 356°
2026-05-06 14:03 -6.21344 39.22407 66 ft 32 kts 354°
2026-05-06 14:03 -6.21204 39.22370 62 ft 18 kts 338°
2026-05-06 14:04 -6.21170 39.22382 59 ft 1 kts 98°
2026-05-06 14:04 -6.21199 39.22396 61 ft 7 kts 171°
2026-05-06 14:04 -6.21250 39.22398 62 ft 8 kts 176°
2026-05-06 14:04 -6.21290 39.22401 65 ft 27 kts 175°
2026-05-06 14:05 -6.21726 39.22443 61 ft 97 kts 174°
2026-05-06 14:05 -6.22611 39.22535 58 ft 156 kts 172°
2026-05-06 14:05 -6.23746 39.22606 637 ft 159 kts 176°
2026-05-06 14:05 -6.24821 39.22642 1404 ft 151 kts 174°
2026-05-06 14:06 -6.25876 39.22559 1808 ft 169 kts 193°
2026-05-06 14:06 -6.26804 39.21711 2007 ft 202 kts 243°
2026-05-06 14:06 -6.26861 39.20232 2286 ft 230 kts 287°
2026-05-06 14:06 -6.25813 39.18954 2633 ft 251 kts 331°
2026-05-06 14:07 -6.24087 39.18632 3083 ft 261 kts 12°
2026-05-06 14:07 -6.22374 39.19053 4093 ft 248 kts 12°
2026-05-06 14:07 -6.20615 39.19058 4662 ft 264 kts 346°
2026-05-06 14:07 -6.18948 39.18224 5100 ft 277 kts 322°
2026-05-06 14:08 -6.17519 39.16918 5817 ft 281 kts 312°
2026-05-06 14:08 -6.16203 39.15440 6585 ft 285 kts 309°
2026-05-06 14:08 -6.14889 39.13918 7337 ft 288 kts 310°
2026-05-06 14:08 -6.13542 39.12428 8173 ft 289 kts 312°
2026-05-06 14:09 -6.12146 39.10969 8995 ft 291 kts 314°
2026-05-06 14:09 -6.10711 39.09539 9752 ft 296 kts 315°
2026-05-06 14:09 -6.09217 39.08091 10390 ft 304 kts 316°
2026-05-06 14:09 -6.07635 39.06580 10745 ft 322 kts 316°
2026-05-06 14:10 -6.05966 39.04993 11103 ft 339 kts 316°
2026-05-06 14:10 -6.04214 39.03327 11462 ft 353 kts 316°
2026-05-06 14:10 -6.02397 39.01596 11851 ft 365 kts 316°
2026-05-06 14:10 -6.00537 38.99821 12358 ft 372 kts 316°
2026-05-06 14:11 -5.98647 38.98016 12920 ft 376 kts 316°
2026-05-06 14:11 -5.96739 38.96191 13516 ft 379 kts 316°
2026-05-06 14:11 -5.94841 38.94375 14016 ft 383 kts 316°
2026-05-06 14:11 -5.92903 38.92521 14516 ft 387 kts 316°
2026-05-06 14:12 -5.90944 38.90647 15007 ft 390 kts 316°
2026-05-06 14:12 -5.88973 38.88761 15510 ft 392 kts 317°
2026-05-06 14:12 -5.86987 38.86861 16027 ft 395 kts 317°
2026-05-06 14:12 -5.84993 38.84954 16474 ft 399 kts 317°
2026-05-06 14:13 -5.82968 38.83017 16965 ft 402 kts 317°
2026-05-06 14:13 -5.80930 38.81070 17460 ft 405 kts 317°
2026-05-06 14:13 -5.78868 38.79100 17899 ft 409 kts 317°
2026-05-06 14:13 -5.76823 38.77144 18349 ft 412 kts 317°
2026-05-06 14:14 -5.74731 38.75144 18782 ft 415 kts 318°
2026-05-06 14:14 -5.72648 38.73154 19137 ft 419 kts 318°
2026-05-06 14:14 -5.70527 38.71126 19508 ft 423 kts 317°
2026-05-06 14:14 -5.68390 38.69084 19889 ft 426 kts 318°
2026-05-06 14:15 -5.66229 38.67020 20246 ft 430 kts 317°
2026-05-06 14:15 -5.64053 38.64941 20677 ft 433 kts 318°
2026-05-06 14:15 -5.61866 38.62854 21084 ft 435 kts 318°
2026-05-06 14:15 -5.59656 38.60743 21505 ft 438 kts 317°
2026-05-06 14:16 -5.57506 38.58561 21910 ft 441 kts 314°
2026-05-06 14:16 -5.55442 38.56298 22243 ft 447 kts 313°
2026-05-06 14:16 -5.53368 38.53956 22613 ft 450 kts 313°
2026-05-06 14:16 -5.51280 38.51593 23059 ft 452 kts 313°
2026-05-06 14:17 -5.49179 38.49237 23433 ft 456 kts 313°
2026-05-06 14:17 -5.47759 38.47661 23615 ft 459 kts 314°
2026-05-06 14:17 -5.45596 38.45277 23946 ft 462 kts 314°
2026-05-06 14:17 -5.42686 38.42093 24448 ft 463 kts 314°
2026-05-06 14:18 -5.40500 38.39708 24816 ft 465 kts 314°
2026-05-06 14:18 -5.38303 38.37313 25214 ft 467 kts 314°
2026-05-06 14:18 -5.36838 38.35716 25461 ft 469 kts 314°
2026-05-06 14:18 -5.33903 38.32515 26042 ft 471 kts 314°
2026-05-06 14:19 -5.31674 38.30084 26447 ft 474 kts 314°
2026-05-06 14:19 -5.29427 38.27632 26871 ft 477 kts 314°
2026-05-06 14:19 -5.27934 38.26004 27166 ft 478 kts 314°
2026-05-06 14:19 -5.25669 38.23533 27527 ft 483 kts 314°
2026-05-06 14:20 -5.23380 38.21037 27868 ft 486 kts 314°
2026-05-06 14:20 -5.21066 38.18538 27968 ft 493 kts 316°
2026-05-06 14:20 -5.18442 38.16294 27982 ft 502 kts 324°
2026-05-06 14:20 -5.15609 38.14193 27976 ft 509 kts 325°
2026-05-06 14:21 -5.12750 38.12107 27977 ft 509 kts 326°
2026-05-06 14:21 -5.09873 38.10016 27977 ft 508 kts 325°
2026-05-06 14:21 -5.07040 38.07958 27979 ft 508 kts 326°
2026-05-06 14:21 -5.04176 38.05883 27980 ft 508 kts 326°
2026-05-06 14:22 -5.01308 38.03805 27982 ft 508 kts 326°
2026-05-06 14:22 -4.98435 38.01725 27982 ft 508 kts 326°
2026-05-06 14:22 -4.95570 37.99651 27982 ft 508 kts 325°
2026-05-06 14:22 -4.92699 37.97573 27982 ft 507 kts 326°
2026-05-06 14:23 -4.89864 37.95521 27980 ft 507 kts 325°
2026-05-06 14:23 -4.86987 37.93438 27982 ft 508 kts 326°
2026-05-06 14:23 -4.84111 37.91359 27983 ft 509 kts 325°
2026-05-06 14:23 -4.81234 37.89278 27982 ft 508 kts 326°
2026-05-06 14:24 -4.78366 37.87204 27980 ft 508 kts 325°
2026-05-06 14:24 -4.75504 37.85133 27981 ft 508 kts 326°
2026-05-06 14:24 -4.72640 37.83062 27979 ft 507 kts 325°
2026-05-06 14:24 -4.69809 37.81014 27985 ft 508 kts 326°
2026-05-06 14:25 -4.66935 37.78937 27984 ft 508 kts 325°
2026-05-06 14:25 -4.64068 37.76865 27983 ft 508 kts 325°
2026-05-06 14:25 -4.61202 37.74792 27982 ft 507 kts 325°
2026-05-06 14:25 -4.58344 37.72726 27898 ft 507 kts 325°
2026-05-06 14:26 -4.55470 37.70649 27257 ft 507 kts 326°
2026-05-06 14:26 -4.52600 37.68575 26456 ft 506 kts 325°
2026-05-06 14:26 -4.49772 37.66531 26084 ft 495 kts 326°
2026-05-06 14:26 -4.47033 37.64551 25540 ft 490 kts 325°
2026-05-06 14:27 -4.44273 37.62556 24931 ft 486 kts 326°
2026-05-06 14:27 -4.41536 37.60580 24316 ft 482 kts 325°
2026-05-06 14:27 -4.38852 37.58639 23717 ft 479 kts 326°
2026-05-06 14:27 -4.36163 37.56699 23082 ft 474 kts 326°
2026-05-06 14:28 -4.33496 37.54773 22476 ft 468 kts 325°
2026-05-06 14:28 -4.30855 37.52867 21879 ft 462 kts 326°
2026-05-06 14:28 -4.28261 37.50993 21291 ft 456 kts 326°
2026-05-06 14:28 -4.25704 37.49147 20714 ft 451 kts 326°
2026-05-06 14:29 -4.23174 37.47319 20160 ft 444 kts 326°
2026-05-06 14:29 -4.20681 37.45521 19607 ft 439 kts 325°
2026-05-06 14:29 -4.18219 37.43744 19050 ft 434 kts 325°
2026-05-06 14:29 -4.15811 37.42007 18465 ft 430 kts 325°
2026-05-06 14:30 -4.13387 37.40257 17891 ft 425 kts 325°
2026-05-06 14:30 -4.11006 37.38539 17235 ft 420 kts 325°
2026-05-06 14:30 -4.08645 37.36835 16595 ft 415 kts 325°
2026-05-06 14:30 -4.06316 37.35155 16032 ft 409 kts 324°
2026-05-06 14:31 -4.04008 37.33490 15372 ft 407 kts 324°
2026-05-06 14:31 -4.01715 37.31836 14718 ft 404 kts 324°
2026-05-06 14:31 -3.99458 37.30208 14106 ft 401 kts 324°
2026-05-06 14:31 -3.97222 37.28596 13616 ft 393 kts 324°
2026-05-06 14:32 -3.95003 37.26996 12868 ft 391 kts 323°
2026-05-06 14:32 -3.92796 37.25403 12161 ft 389 kts 323°
2026-05-06 14:32 -3.90604 37.23822 11398 ft 389 kts 323°
2026-05-06 14:32 -3.88429 37.22253 10983 ft 379 kts 323°
2026-05-06 14:33 -3.86323 37.20735 10693 ft 367 kts 323°
2026-05-06 14:33 -3.84302 37.19278 10421 ft 356 kts 323°
2026-05-06 14:33 -3.82319 37.17848 10162 ft 344 kts 323°
2026-05-06 14:33 -3.80400 37.16464 9914 ft 334 kts 323°
2026-05-06 14:34 -3.78545 37.15125 9648 ft 323 kts 323°
2026-05-06 14:34 -3.76911 37.13645 9346 ft 312 kts 306°
2026-05-06 14:34 -3.75830 37.11801 9075 ft 303 kts 294°
2026-05-06 14:34 -3.74974 37.09911 8653 ft 301 kts 292°
2026-05-06 14:35 -3.74130 37.07983 8198 ft 300 kts 292°
2026-05-06 14:35 -3.73307 37.06077 7921 ft 294 kts 292°
2026-05-06 14:35 -3.72516 37.04225 7724 ft 284 kts 292°
2026-05-06 14:35 -3.71743 37.02436 7537 ft 275 kts 292°
2026-05-06 14:36 -3.71004 37.00712 7353 ft 265 kts 292°
2026-05-06 14:36 -3.70328 36.99022 7190 ft 256 kts 290°
2026-05-06 14:36 -3.69755 36.97381 7035 ft 248 kts 288°
2026-05-06 14:36 -3.69234 36.95762 6886 ft 239 kts 288°
2026-05-06 14:37 -3.68744 36.94200 6731 ft 231 kts 287°
2026-05-06 14:37 -3.68153 36.92687 6309 ft 236 kts 295°
2026-05-06 14:37 -3.67475 36.91175 6047 ft 243 kts 295°
2026-05-06 14:37 -3.66761 36.89638 6003 ft 245 kts 295°
2026-05-06 14:38 -3.65923 36.88151 6010 ft 244 kts 309°
2026-05-06 14:38 -3.64639 36.87048 6002 ft 242 kts 327°
2026-05-06 14:38 -3.63163 36.86235 6009 ft 242 kts 341°
2026-05-06 14:38 -3.61545 36.86028 6014 ft 235 kts 11°
2026-05-06 14:39 -3.60047 36.86608 6017 ft 230 kts 31°
2026-05-06 14:39 -3.58507 36.87051 6036 ft 234 kts
2026-05-06 14:39 -3.56873 36.87196 6273 ft 237 kts 10°
2026-05-06 14:39 -3.55240 36.87463 6508 ft 237 kts 12°
2026-05-06 14:40 -3.53616 36.87770 6656 ft 239 kts 13°
2026-05-06 14:40 -3.52011 36.88105 6518 ft 231 kts 14°
2026-05-06 14:40 -3.50505 36.88437 6357 ft 214 kts 14°
2026-05-06 14:40 -3.49091 36.88755 6142 ft 198 kts 16°
2026-05-06 14:41 -3.47824 36.89045 6013 ft 179 kts 17°
2026-05-06 14:41 -3.46686 36.89309 5991 ft 158 kts 17°
2026-05-06 14:41 -3.45638 36.89556 6000 ft 153 kts 16°
2026-05-06 14:41 -3.44620 36.89873 6009 ft 154 kts 30°
2026-05-06 14:42 -3.43848 36.90582 5948 ft 153 kts 63°
2026-05-06 14:42 -3.43571 36.91591 5756 ft 151 kts 88°
2026-05-06 14:42 -3.43566 36.92633 5515 ft 149 kts 93°
2026-05-06 14:42 -3.43555 36.93670 5311 ft 149 kts 88°
2026-05-06 14:43 -3.43489 36.94705 5107 ft 149 kts 89°
2026-05-06 14:43 -3.43445 36.95732 4918 ft 149 kts 89°
2026-05-06 14:43 -3.43400 36.96767 4710 ft 149 kts 87°
2026-05-06 14:43 -3.43357 36.97804 4512 ft 150 kts 88°
2026-05-06 14:44 -3.43312 36.98846 4303 ft 150 kts 87°
2026-05-06 14:44 -3.43260 36.99886 4148 ft 149 kts 87°
2026-05-06 14:44 -3.43208 37.00925 3902 ft 148 kts 88°
2026-05-06 14:45 -3.43141 37.02959 3497 ft 144 kts 87°
2026-05-06 14:45 -3.43107 37.03957 3313 ft 146 kts 86°
2026-05-06 14:45 -3.43045 37.04964 3123 ft 145 kts 84°
2026-05-06 14:45 -3.43011 37.05971 2969 ft 145 kts 82°
2026-05-06 14:46 -3.42973 37.06835 2937 ft 87 kts 87°
2026-05-06 14:46 -3.42958 37.07139 2934 ft 0 kts 87°
2026-05-06 14:46 -3.42955 37.07144 2932 ft 1 kts 59°
2026-05-06 14:46 -3.42948 37.07147 2930 ft 2 kts 27°
2026-05-06 14:47 -3.42910 37.07116 2930 ft 16 kts 308°
2026-05-06 14:47 -3.42830 37.06989 2934 ft 16 kts 295°
2026-05-06 14:47 -3.42759 37.06897 2931 ft 17 kts 317°
2026-05-06 14:47 -3.42715 37.06787 2936 ft 18 kts 272°
2026-05-06 14:48 -3.42721 37.06663 2936 ft 18 kts 266°
2026-05-06 14:48 -3.42727 37.06536 2943 ft 19 kts 267°
2026-05-06 14:48 -3.42680 37.06429 2937 ft 12 kts 336°
2026-05-06 14:48 -3.42660 37.06428 2935 ft 2 kts 12°
2026-05-06 14:49 -3.42656 37.06432 2931 ft 1 kts 31°
2026-05-06 14:49 -3.42653 37.06478 2932 ft 8 kts 111°
2026-05-06 14:49 -3.42659 37.06511 2936 ft 0 kts 95°